Thedford, NE

8:28 PM CDT on April 26, 2018 (GMT -0500)
Thedford

Weather History for KTIF - September, 2013

Change the Weather History Date:

Saturday, September 14, 2013

  Actual Average (KANW) Record (KANW)
Temperature  
Mean Temperature 70 °F -  
Max Temperature 79 °F 75 °F 97 °F (2015)
Min Temperature 61 °F 50 °F 33 °F (2007)
Cooling Degree Days 5    
Growing Degree Days 20 (Base 50)    
Moisture  
Dew Point 54 °F    
Average Humidity 59    
Maximum Humidity 77    
Minimum Humidity 48    
Precipitation  
Precipitation 0.00 in - - ()
Sea Level Pressure  
Sea Level Pressure 29.93 in    
Wind  
Wind Speed 15 mph (South)    
Max Wind Speed 23 mph    
Max Gust Speed 33 mph    
Visibility 10 miles    
Events      
Averages and records for this station are not official NWS values.
T = Trace of Precipitation, MM = Missing Value Source: NWS Daily Summary

Daily Weather History Graph

Daily Weather History Graph

Search for Another Location

Airport or City:

Astronomy

Sep. 14, 2013 Rise Set
Actual Time 7:21 AM CDT 7:53 PM CDT
Civil Twilight 6:53 AM CDT 8:21 PM CDT
Nautical Twilight 6:20 AM CDT 8:54 PM CDT
Astronomical Twilight 5:46 AM CDT 9:28 PM CDT
Moon 4:39 PM CDT (9/14) 1:51 AM CDT (9/14)
Length of Visible Light 13h 27m
Length of Day
12h 31m
Waxing Gibbous, 72% of the Moon is Illuminated
Sep 14
Waxing Gibbous
Sep 19
Full
Sep 26
Last Quarter
Oct 4
New
Oct 11
First Quarter

Hourly Weather History & Observations

Time (CDT) Temp. Dew Point Humidity Pressure Visibility Wind Dir Wind Speed Gust Speed Precip Events Conditions
12:15 AM 62.6 °F 48.9 °F 61% 30.04 in 10.0 mi South 16.1 mph 19.6 mph N/A   Overcast
12:35 AM 62.6 °F 48.9 °F 61% 30.04 in 10.0 mi South 15.0 mph 23.0 mph N/A   Overcast
12:55 AM 62.6 °F 48.7 °F 60% 30.04 in 10.0 mi South 13.8 mph 19.6 mph N/A   Overcast
1:15 AM 62.6 °F 48.7 °F 60% 30.03 in 10.0 mi South 12.7 mph 18.4 mph N/A   Overcast
1:35 AM 63.0 °F 48.6 °F 59% 30.03 in 10.0 mi South 16.1 mph 21.9 mph N/A   Overcast
1:55 AM 63.5 °F 48.4 °F 58% 30.03 in 10.0 mi South 17.3 mph 23.0 mph N/A   Overcast
2:15 AM 63.5 °F 48.2 °F 57% 30.02 in 10.0 mi South 17.3 mph 26.5 mph N/A   Overcast
2:35 AM 63.3 °F 48.0 °F 57% 30.01 in 10.0 mi South 19.6 mph 25.3 mph N/A   Overcast
2:55 AM 63.5 °F 46.6 °F 54% 30.00 in 10.0 mi South 13.8 mph 21.9 mph N/A   Overcast
3:15 AM 63.0 °F 46.0 °F 54% 29.99 in 10.0 mi South 16.1 mph 21.9 mph N/A   Overcast
3:35 AM 63.1 °F 45.9 °F 53% 29.99 in 10.0 mi South 12.7 mph 17.3 mph N/A   Overcast
3:55 AM 63.5 °F 45.5 °F 52% 29.99 in 10.0 mi South 13.8 mph 20.7 mph N/A   Overcast
4:15 AM 63.3 °F 46.8 °F 55% 29.99 in 10.0 mi South 12.7 mph 18.4 mph N/A   Overcast
4:35 AM 61.9 °F 48.6 °F 62% 29.99 in 10.0 mi South 15.0 mph 19.6 mph N/A   Light Drizzle
4:55 AM 62.6 °F 48.4 °F 60% 29.98 in 10.0 mi South 16.1 mph 21.9 mph N/A   Overcast
5:15 AM 62.8 °F 48.6 °F 60% 29.97 in 10.0 mi South 17.3 mph 23.0 mph N/A   Overcast
5:35 AM 62.6 °F 49.1 °F 61% 29.96 in 10.0 mi South 18.4 mph 25.3 mph N/A   Mostly Cloudy
5:55 AM 62.6 °F 49.3 °F 62% 29.96 in 10.0 mi South 16.1 mph 20.7 mph N/A   Overcast
6:15 AM 62.6 °F 49.5 °F 62% 29.96 in 10.0 mi South 17.3 mph 23.0 mph N/A   Overcast
6:35 AM 62.8 °F 49.5 °F 62% 29.96 in 10.0 mi South 20.7 mph 25.3 mph N/A   Overcast
6:55 AM 62.6 °F 49.6 °F 63% 29.94 in 10.0 mi South 19.6 mph 28.8 mph N/A   Mostly Cloudy
7:15 AM 62.6 °F 49.5 °F 62% 29.93 in 10.0 mi South 23.0 mph 28.8 mph N/A   Scattered Clouds
7:35 AM 62.8 °F 49.1 °F 61% 29.92 in 10.0 mi South 21.9 mph 28.8 mph N/A   Clear
7:55 AM 63.1 °F 49.1 °F 60% 29.91 in 10.0 mi South 21.9 mph 31.1 mph N/A   Clear
8:15 AM 63.0 °F 49.6 °F 62% 29.91 in 10.0 mi South 21.9 mph 33.4 mph N/A   Clear
8:35 AM 63.1 °F 49.8 °F 62% 29.91 in 10.0 mi South 20.7 mph 33.4 mph N/A   Scattered Clouds
8:55 AM 63.9 °F 50.0 °F 61% 29.96 in 10.0 mi SSW 11.5 mph 20.7 mph N/A   Mostly Cloudy
9:15 AM 63.9 °F 50.5 °F 62% 29.96 in 10.0 mi SSW 13.8 mph - N/A   Overcast
9:35 AM 64.0 °F 50.9 °F 62% 29.95 in 10.0 mi SSW 11.5 mph 19.6 mph N/A   Overcast
9:55 AM 64.2 °F 50.9 °F 62% 29.95 in 10.0 mi South 16.1 mph 20.7 mph N/A   Mostly Cloudy
10:15 AM 64.6 °F 51.1 °F 62% 29.95 in 10.0 mi South 16.1 mph 20.7 mph N/A   Mostly Cloudy
10:35 AM 65.8 °F 51.8 °F 60% 29.95 in 10.0 mi South 17.3 mph 23.0 mph N/A   Mostly Cloudy
10:55 AM 65.8 °F 52.3 °F 62% 29.94 in 10.0 mi South 16.1 mph 23.0 mph N/A   Overcast
11:15 AM 67.6 °F 53.6 °F 61% 29.93 in 10.0 mi South 18.4 mph - N/A   Mostly Cloudy
11:35 AM 68.5 °F 54.3 °F 60% 29.93 in 10.0 mi South 13.8 mph - N/A   Mostly Cloudy
11:55 AM 72.0 °F 55.4 °F 56% 29.93 in 10.0 mi SSW 15.0 mph 21.9 mph N/A   Scattered Clouds
12:15 PM 72.1 °F 55.9 °F 57% 29.92 in 10.0 mi SSW 18.4 mph 23.0 mph N/A   Scattered Clouds
12:35 PM 73.9 °F 56.5 °F 54% 29.91 in 10.0 mi SSW 15.0 mph 19.6 mph N/A   Clear
12:55 PM 74.8 °F 56.3 °F 52% 29.90 in 10.0 mi SSW 12.7 mph - N/A   Scattered Clouds
1:15 PM 74.3 °F 56.3 °F 53% 29.90 in 10.0 mi South 16.1 mph 19.6 mph N/A   Mostly Cloudy
1:35 PM 74.8 °F 56.3 °F 52% 29.90 in 10.0 mi South 15.0 mph - N/A   Mostly Cloudy
1:55 PM 75.6 °F 56.5 °F 51% 29.89 in 10.0 mi South 12.7 mph 18.4 mph N/A   Mostly Cloudy
2:15 PM 73.9 °F 56.7 °F 55% 29.89 in 10.0 mi South 12.7 mph 21.9 mph N/A   Mostly Cloudy
2:35 PM 77.0 °F 57.2 °F 50% 29.89 in 10.0 mi SSW 13.8 mph 21.9 mph N/A   Mostly Cloudy
2:55 PM 76.3 °F 57.4 °F 52% 29.88 in 10.0 mi SSW 10.4 mph 19.6 mph N/A   Mostly Cloudy
3:15 PM 76.3 °F 57.2 °F 52% 29.88 in 10.0 mi SW 11.5 mph 19.6 mph N/A   Mostly Cloudy
3:35 PM 77.2 °F 57.2 °F 50% 29.87 in 10.0 mi SW 13.8 mph 20.7 mph N/A   Mostly Cloudy
3:55 PM 78.1 °F 57.4 °F 49% 29.87 in 10.0 mi SW 13.8 mph 18.4 mph N/A   Scattered Clouds
4:15 PM 78.1 °F 57.6 °F 49% 29.87 in 10.0 mi SSW 11.5 mph 19.6 mph N/A   Scattered Clouds
4:35 PM 78.3 °F 57.6 °F 49% 29.86 in 10.0 mi SSW 13.8 mph 19.6 mph N/A   Clear
4:55 PM 77.0 °F 57.6 °F 51% 29.86 in 10.0 mi SW 11.5 mph 18.4 mph N/A   Clear
5:15 PM 79.0 °F 57.6 °F 48% 29.86 in 10.0 mi SW 12.7 mph 18.4 mph N/A   Clear
5:35 PM 78.8 °F 57.6 °F 48% 29.86 in 10.0 mi SSW 9.2 mph - N/A   Clear
5:55 PM 77.2 °F 58.1 °F 52% 29.86 in 10.0 mi South 11.5 mph - N/A   Clear
6:15 PM 76.5 °F 58.1 °F 53% 29.86 in 10.0 mi SSW 10.4 mph - N/A   Clear
6:35 PM 76.5 °F 58.3 °F 53% 29.86 in 10.0 mi South 6.9 mph - N/A   Clear
6:55 PM 77.4 °F 58.5 °F 52% 29.86 in 10.0 mi South 9.2 mph - N/A   Clear
7:15 PM 76.8 °F 58.5 °F 53% 29.86 in 10.0 mi South 9.2 mph - N/A   Clear
7:35 PM 75.4 °F 59.0 °F 57% 29.86 in 10.0 mi South 9.2 mph - N/A   Clear
7:55 PM 73.4 °F 59.0 °F 61% 29.86 in 10.0 mi South 6.9 mph - N/A   Clear
8:15 PM 72.0 °F 59.2 °F 64% 29.87 in 10.0 mi South 5.8 mph - N/A   Clear
8:35 PM 70.5 °F 59.2 °F 67% 29.87 in 10.0 mi South 6.9 mph - N/A   Clear
8:55 PM 70.9 °F 59.5 °F 67% 29.88 in 10.0 mi South 9.2 mph - N/A   Clear
9:15 PM 70.3 °F 59.9 °F 69% 29.89 in 10.0 mi South 8.1 mph - N/A   Clear
9:35 PM 69.3 °F 59.9 °F 72% 29.89 in 10.0 mi South 6.9 mph - N/A   Clear
9:55 PM 69.1 °F 60.3 °F 73% 29.89 in 10.0 mi South 8.1 mph - N/A   Clear
10:15 PM 68.9 °F 60.6 °F 75% 29.89 in 10.0 mi South 6.9 mph - N/A   Clear
10:35 PM 68.2 °F 60.8 °F 77% 29.89 in 10.0 mi South 6.9 mph - N/A   Clear
10:55 PM 68.4 °F 60.8 °F 77% 29.90 in 10.0 mi SSW 5.8 mph - N/A   Clear
11:15 PM 69.1 °F 61.2 °F 76% 29.91 in 10.0 mi SW 5.8 mph - N/A   Clear
11:35 PM 69.3 °F 61.2 °F 75% 29.91 in 10.0 mi SSW 4.6 mph - N/A   Mostly Cloudy
11:55 PM 68.9 °F 61.3 °F 77% 29.92 in 10.0 mi SW 6.9 mph - N/A   Mostly Cloudy